Zanesville, OH

4:49 PM EST on December 13, 2017 (GMT -0500)
Zanesville Municipal

Weather History for KZZV - March, 2014

Change the Weather History Date:

Thursday, March 27, 2014

  Actual Average Record
Temperature  
Mean Temperature 38 °F 45 °F  
Max Temperature 56 °F 56 °F 85 °F (1950)
Min Temperature 19 °F 33 °F 14 °F (2001)
Degree Days  
Heating Degree Days 27 20  
Month to date heating degree days 812 673  
Since 1 July heating degree days 5369 4864  
Cooling Degree Days 0 0  
Month to date cooling degree days 0 0  
Year to date cooling degree days 0 0  
Moisture  
Dew Point 14 °F    
Average Humidity 44    
Maximum Humidity 67    
Minimum Humidity 20    
Precipitation  
Precipitation T in 0.11 in 0.67 in (1948)
Month to date precipitation 1.15 2.55  
Year to date precipitation 3.73 7.38  
Sea Level Pressure  
Sea Level Pressure 30.12 in    
Wind  
Wind Speed 10 mph (South)    
Max Wind Speed 21 mph    
Max Gust Speed 26 mph    
Visibility 10 miles    
Events      
T = Trace of Precipitation, MM = Missing Value Source: NWS Daily Summary

Daily Weather History Graph

Daily Weather History Graph

Search for Another Location

Airport or City:

Trip Planner

Search our weather history database for the weather conditions in past years. The results will help you decide how hot, cold, wet, or windy it might be!

Date:

Astronomy

Mar. 27, 2014 Rise Set
Actual Time 7:19 AM EDT 7:46 PM EDT
Civil Twilight 6:52 AM EDT 8:13 PM EDT
Nautical Twilight 6:20 AM EDT 8:45 PM EDT
Astronomical Twilight 5:48 AM EDT 9:18 PM EDT
Moon 5:09 AM EDT (3/27) 4:32 PM EDT (3/27)
Length of Visible Light 13h 21m
Length of Day
12h 27m
Waning Crescent, 13% of the Moon is Illuminated
Mar 27
Waning Crescent
Mar 30
New
Apr 7
First Quarter
Apr 15
Full
Apr 22
Last Quarter

Hourly Weather History & Observations

Time (EDT) Temp. Windchill Dew Point Humidity Pressure Visibility Wind Dir Wind Speed Gust Speed Precip Events Conditions
12:53 AM 21.9 °F - 10.9 °F 63% 30.32 in 10.0 mi Calm Calm - N/A   Clear
1:53 AM 19.9 °F 14.9 °F 10.9 °F 68% 30.31 in 10.0 mi South 3.5 mph - N/A   Clear
2:53 AM 21.0 °F 13.4 °F 9.0 °F 60% 30.30 in 10.0 mi SSE 5.8 mph - N/A   Clear
3:53 AM 24.1 °F 19.7 °F 10.0 °F 55% 30.27 in 10.0 mi ESE 3.5 mph - N/A   Clear
4:53 AM 25.0 °F 17.1 °F 12.0 °F 58% 30.26 in 10.0 mi SSE 6.9 mph - N/A   Clear
5:53 AM 26.1 °F 17.6 °F 10.9 °F 53% 30.25 in 10.0 mi SSE 8.1 mph - N/A   Clear
6:53 AM 26.1 °F 19.4 °F 12.0 °F 55% 30.25 in 10.0 mi SSE 5.8 mph - N/A   Clear
7:53 AM 27.0 °F 20.5 °F 12.0 °F 53% 30.25 in 10.0 mi SSE 5.8 mph - N/A   Partly Cloudy
8:53 AM 30.9 °F 23.5 °F 12.9 °F 47% 30.25 in 10.0 mi South 8.1 mph - N/A   Scattered Clouds
9:53 AM 34.0 °F 26.6 °F 14.0 °F 44% 30.23 in 10.0 mi South 9.2 mph - N/A   Overcast
10:53 AM 37.9 °F 30.9 °F 14.0 °F 38% 30.20 in 10.0 mi South 10.4 mph - N/A   Overcast
11:53 AM 39.9 °F 33.4 °F 14.0 °F 35% 30.18 in 10.0 mi South 10.4 mph - N/A   Overcast
12:53 PM 45.0 °F 38.5 °F 14.0 °F 29% 30.13 in 10.0 mi South 13.8 mph - 0.00 in   Overcast
1:53 PM 50.0 °F - 10.9 °F 21% 30.10 in 10.0 mi South 17.3 mph 23.0 mph N/A   Overcast
2:53 PM 51.1 °F - 12.0 °F 21% 30.08 in 10.0 mi South 18.4 mph - N/A   Overcast
3:53 PM 48.0 °F - 19.9 °F 33% 30.05 in 10.0 mi South 10.4 mph - 0.00 in   Overcast
4:53 PM 50.0 °F - 17.1 °F 27% 30.03 in 10.0 mi South 9.2 mph - N/A   Overcast
5:53 PM 51.1 °F - 16.0 °F 25% 30.00 in 10.0 mi South 10.4 mph 21.9 mph N/A   Overcast
6:53 PM 52.0 °F - 16.0 °F 24% 29.97 in 10.0 mi South 6.9 mph - N/A   Overcast
7:53 PM 52.0 °F - 16.0 °F 24% 29.94 in 10.0 mi South 9.2 mph - N/A   Overcast
8:53 PM 54.0 °F - 17.1 °F 23% 29.90 in 10.0 mi SSE 11.5 mph - 0.00 in   Overcast
9:53 PM 55.0 °F - 18.0 °F 23% 29.87 in 10.0 mi SSE 15.0 mph - N/A   Overcast
10:53 PM 55.0 °F - 19.0 °F 24% 29.85 in 10.0 mi South 13.8 mph - N/A   Overcast
11:53 PM 55.0 °F - 19.9 °F 25% 29.85 in 10.0 mi South 13.8 mph - N/A   Mostly Cloudy